TimePDT,TemperatureF,Dew PointF,Humidity,Sea Level PressureIn,VisibilityMPH,Wind Direction,Wind SpeedMPH,Gust SpeedMPH,PrecipitationIn,Events,Conditions,WindDirDegrees,DateUTC
12:53 AM,44.1,41.0,89,30.24,10.0,North,3.5,-,0.01,Rain,Light Rain,360,2012-10-25 07:53:00
1:07 AM,44.6,41.0,87,30.23,10.0,North,3.5,-,N/A,,Overcast,10,2012-10-25 08:07:00
1:38 AM,44.6,41.0,87,30.25,10.0,North,3.5,-,N/A,,Overcast,350,2012-10-25 08:38:00
1:53 AM,44.1,41.0,89,30.26,10.0,Calm,Calm,-,N/A,,Overcast,0,2012-10-25 08:53:00
2:53 AM,43.0,41.0,93,30.28,10.0,Calm,Calm,-,N/A,,Overcast,0,2012-10-25 09:53:00
3:53 AM,43.0,41.0,93,30.28,10.0,Calm,Calm,-,N/A,,Overcast,0,2012-10-25 10:53:00
4:27 AM,42.8,41.0,93,30.28,8.0,Calm,Calm,-,N/A,,Overcast,0,2012-10-25 11:27:00
4:34 AM,42.8,41.0,93,30.28,7.0,Calm,Calm,-,N/A,,Overcast,0,2012-10-25 11:34:00
4:53 AM,43.0,41.0,93,30.30,7.0,Calm,Calm,-,N/A,,Overcast,0,2012-10-25 11:53:00
5:14 AM,42.8,39.2,87,30.29,10.0,Calm,Calm,-,N/A,,Overcast,0,2012-10-25 12:14:00
5:22 AM,42.8,39.2,87,30.29,10.0,Calm,Calm,-,N/A,,Overcast,0,2012-10-25 12:22:00
5:53 AM,42.1,39.9,92,30.32,10.0,Calm,Calm,-,N/A,,Mostly Cloudy,0,2012-10-25 12:53:00
6:49 AM,42.8,39.2,87,30.32,10.0,Calm,Calm,-,N/A,,Overcast,0,2012-10-25 13:49:00
6:53 AM,42.1,39.9,92,30.34,10.0,Calm,Calm,-,N/A,,Overcast,0,2012-10-25 13:53:00
7:05 AM,42.8,39.2,87,30.33,10.0,Calm,Calm,-,N/A,,Overcast,0,2012-10-25 14:05:00
7:53 AM,42.1,39.9,92,30.35,10.0,Calm,Calm,-,N/A,,Overcast,0,2012-10-25 14:53:00
7:57 AM,42.8,39.2,87,30.34,10.0,Calm,Calm,-,N/A,,Overcast,0,2012-10-25 14:57:00
8:08 AM,42.8,39.2,87,30.33,10.0,Calm,Calm,-,N/A,,Overcast,0,2012-10-25 15:08:00
8:53 AM,43.0,41.0,93,30.36,10.0,Calm,Calm,-,N/A,,Overcast,0,2012-10-25 15:53:00
9:53 AM,44.1,39.9,85,30.39,10.0,Calm,Calm,-,N/A,,Mostly Cloudy,0,2012-10-25 16:53:00
10:46 AM,46.4,39.2,76,30.38,10.0,Calm,Calm,-,N/A,,Mostly Cloudy,0,2012-10-25 17:46:00
10:53 AM,46.0,41.0,83,30.40,10.0,Calm,Calm,-,N/A,,Mostly Cloudy,0,2012-10-25 17:53:00
11:18 AM,46.4,39.2,76,30.38,10.0,Calm,Calm,-,N/A,,Scattered Clouds,0,2012-10-25 18:18:00
11:53 AM,48.9,39.9,71,30.40,10.0,Calm,Calm,-,N/A,,Mostly Cloudy,0,2012-10-25 18:53:00
12:33 PM,50.0,39.2,66,30.38,10.0,Calm,Calm,-,N/A,,Scattered Clouds,0,2012-10-25 19:33:00
12:53 PM,52.0,41.0,66,30.38,10.0,Calm,Calm,-,N/A,,Scattered Clouds,0,2012-10-25 19:53:00
1:53 PM,53.1,39.9,61,30.37,10.0,Calm,Calm,-,N/A,,Scattered Clouds,0,2012-10-25 20:53:00
2:53 PM,55.0,39.9,57,30.34,10.0,Calm,Calm,-,N/A,,Scattered Clouds,0,2012-10-25 21:53:00
3:53 PM,57.0,39.0,51,30.33,10.0,NNW,3.5,-,N/A,,Scattered Clouds,340,2012-10-25 22:53:00
4:53 PM,57.0,39.0,51,30.34,10.0,NW,5.8,-,N/A,,Clear,310,2012-10-25 23:53:00
5:53 PM,55.0,37.9,53,30.34,10.0,WNW,3.5,-,N/A,,Clear,290,2012-10-26 00:53:00
6:53 PM,50.0,41.0,71,30.36,10.0,South,3.5,-,N/A,,Scattered Clouds,180,2012-10-26 01:53:00
7:53 PM,48.9,41.0,74,30.36,10.0,South,4.6,-,N/A,,Partly Cloudy,180,2012-10-26 02:53:00
8:53 PM,48.0,39.0,71,30.35,10.0,Calm,Calm,-,N/A,,Mostly Cloudy,0,2012-10-26 03:53:00
9:53 PM,45.0,39.0,80,30.35,10.0,Calm,Calm,-,N/A,,Overcast,0,2012-10-26 04:53:00
10:53 PM,45.0,39.9,82,30.34,10.0,Calm,Calm,-,N/A,,Mostly Cloudy,0,2012-10-26 05:53:00
11:53 PM,43.0,39.0,86,30.35,10.0,Calm,Calm,-,N/A,,Overcast,0,2012-10-26 06:53:00